Voltar ao catálogo

FENGYUN 1C DEB

AtivoPO
NORAD 37049·DEBRIS·🇨🇳 China

Lançado May 10, 1999 de Taiyuan Satellite Launch Center

Loading…

Próximas Passagens (próximas 24 horas)

TLE

AtualizadoSource: Space-Track

Época: Sep 12, 2026, 06:32 UTC

1 37049U 99025EEH 26255.27241114  .00003022  00000-0  88522-3 0  9995
2 37049  99.2459 274.1231 0035203 107.2207 253.2839 14.44383233676832

Acompanhe FENGYUN 1C DEB em tempo real com AllMySat

Download on the App Store